RAPIDEYE 1

Satellite information

Favourite Embed

Satellite Type and Status

PAYLOADIN ORBIT

Key statistics

Satellite RAPIDEYE 1 at a glance.

Uptime

6095

Days in orbit

Revolutions

≈ 15.0

Per day

Orbit

SSO

Sun Synchronous Orbit

Inclination

97.5

Latest

Satellite identification and parameters

Extended collection of information and parameters for RAPIDEYE 1.

Object identification

Identified? True

Debris? False

Object name: RAPIDEYE 1

International designator: 2008-040C

Object number (NORAD): 33314

Object ID (CCSDS): 33314

Country: GERMANY (GER)

Current information (Y/N): Y

RCS size: MEDIUM

Orbital parameters

Period: 95.898 minutes

Inclination: 97.4595 deg

SMA: 6940.128 km

Apoapsis: 580.268 km

Periapsis: 543.718 km

RAAN: 165.4302 deg

Eccentricy: 0.0026332

Argument of periapsis: 133.1284 deg

Mean anomaly: 227.215 deg

Mean motion: 15.01590634 rev/day

Mean motion (dot): 0.00002424 rev/day2

B* drag term: 0.00019009 1/REarth

Two-line elements (TLE)

Creation date: May 6, 2025, 3:54 a.m.

Reference frame: TEME

Reference center: EARTH

Epoch: May 5, 2025, 7:58 p.m. UTC

TLE line 0: 0 RAPIDEYE 1

TLE line 1: 1 33314U 08040C 25125.83250164 .00002424 00000-0 19009-3 0 9994

TLE line 2: 2 33314 97.4595 165.4302 0026332 133.1284 227.2150 15.01590634904493

Live tracking on map

Real-time ground track for satellite RAPIDEYE 1.

In-orbit conjunctions

There are no conjunctions computed for RAPIDEYE 1, at the moment. Check back to stay up to date, as we update our databases every day.

Go to all conjunctions

Associated space launch

German Earth observation satellites

RAPIDEYE 1 was lifted into orbit during the mission ‘Dnepr | RapidEye 1 to 5’, on board a Dnepr space rocket.

The launch took place on Aug. 29, 2008, 7:15 a.m. from 109/95.

For more information about the launch, click the button.

Launch to space Dnepr | RapidEye 1 to 5
Dnepr | RapidEye 1 to 5

Agency: N/A

Status: Launch Successful

Launch date: Aug. 29, 2008, 7:15 a.m. UTC

Rocket: Dnepr

Launch pad: 109/95

Location: Baikonur Cosmodrome, Republic of Kazakhstan

...

Latest news about this satellite

There are no fresh news available about this satellite. Check back as we update our databases every day.


Newsletter sign-up

Weekly statistics, charts and insights to help you stay on top of the space industry.